Terug naar catalogus

SCOUT B DEB

LostUNKNOWN
NORAD 29167·DEBRIS·🇺🇸 United States

Gelanceerd Aug 10, 1965 vanaf Wallops Flight Facility

Loading…

Volgende Passages (komende 24 uur)

TLE

VerouderdSource: Space-Track

Epoch: Aug 20, 2021, 01:42 UTC

1 29167U 65063R   21232.07119748 -.00000285  00000-0 -17384-2 0  9994
2 29167  69.2379 161.0900 0721641 343.3848  28.2122 11.88382513601176

Volg SCOUT B DEB in realtime met AllMySat

Download on the App Store